Flag for Germany Weather past 2 weeks in Uelzen, Lower Saxony, Germany

Now
52 °F

Cool.


Feels Like: 51 °F
Forecast: 44 / 60 °F
Wind: 3 mph from South

Location: Fassberg

Current Time: May 27, 2015 at 11:06:52 PM

Latest Report: May 27, 2015 at 10:20 PM


Visibility: 6 mi

Pressure: 30.09 "Hg

Humidity: 67%

Dew point: 41 °F

Location of UelzenLocation

Historic Weather in Uelzen — Graph

°F

Uelzen temperature yesterday

Maximum temperature yesterday: 55 °F (at 11:20 AM)
Minimum temperature yesterday: 39 °F (at 12:20 AM)
Average temperature yesterday: 49 °F

Past Weeks' High & Low Weather Summary

 TemperatureHumidityPressure
High68 °F (May 24, 4:20 PM)100% (May 15, 5:20 AM)30.30 "Hg (May 15, 5:20 AM)
Low32 °F (May 16, 5:20 AM)36% (May 19, 4:20 PM)29.59 "Hg (May 18, 9:20 PM)
Average51 °F70%30.03 "Hg
* Reported May 12 9:20 PM — May 27 9:20 PM, Uelzen, Weather by CustomWeather, © 2015

Note: Actual official high and low records may vary slightly from our data, if they occured in-between our weather recording intervals... More about our weather records

Advertising

Uelzen weather history for previous 24 hours

 ConditionsComfort  
Time TempWeatherWind HumidityBarometerVisibility
9:20 PM
Wed, May 27
54 °FCool.5 mph63%30.09 "Hg6 mi
8:20 PM55 °FPartly sunny.7 mph59%30.09 "HgN/A
7:20 PM57 °FPartly sunny.8 mph51%30.12 "HgN/A
6:20 PM57 °FPartly sunny.9 mph51%30.12 "HgN/A
5:20 PM57 °FPartly sunny.12 mph48%30.15 "HgN/A
5:00 PM57 °FPartly sunny.14 mph51%30.15 "HgN/A
4:20 PM57 °FPartly sunny.12 mph51%30.15 "HgN/A
3:20 PM61 °FBroken clouds.13 mph42%30.15 "HgN/A
2:20 PM57 °FPartly sunny.13 mph51%30.18 "HgN/A
1:20 PM55 °FPartly sunny.12 mph55%30.18 "HgN/A
12:20 PM54 °FPartly sunny.15 mph51%30.18 "HgN/A
11:20 AM52 °FBroken clouds.9 mph67%30.18 "HgN/A
10:20 AM54 °FBroken clouds.10 mph63%30.18 "HgN/A
9:20 AM52 °FPartly sunny.14 mph67%30.18 "HgN/A
8:20 AM48 °FBroken clouds.9 mph87%30.18 "HgN/A
7:20 AM46 °FBroken clouds.8 mph93%30.15 "HgN/A
6:20 AM45 °FBroken clouds.7 mph93%30.15 "HgN/A
5:20 AM45 °FPartly cloudy.7 mph87%30.15 "HgN/A
4:20 AM45 °FPassing clouds.7 mph87%30.15 "HgN/A
3:20 AM45 °FPassing clouds.7 mph87%30.15 "HgN/A
2:20 AM45 °FPassing clouds.5 mph87%30.15 "HgN/A
1:20 AM45 °FPassing clouds.6 mph81%30.15 "HgN/A
12:20 AM41 °FPassing clouds.7 mph87%30.15 "HgN/A
11:20 PM
Tue, May 26
45 °FPassing clouds.6 mph81%30.15 "HgN/A
Weather by CustomWeather, © 2015

See weather overviewHow to use our weather pages